Hourly Data Report for October 13, 2013

All times are specified in Local Standard Time (LST). Add 1 hour to adjust for Daylight Saving Time where and when it is observed.

ARVIAT A
NUNAVUT

61°05'38.000" N
94°04'18.000" W
10.40 m
2300427
71174
YEK

Download Data

Hourly Data (October 2013)
Hourly Data Report for October 13, 2013
Temp Definition
°C
Dew Point Temp Definition
°C
Rel Hum Definition
%
Wind Dir Definition
10's deg

Wind Spd Definition
km/h
Visibility Definition
km
Stn Press Definition
kPa
Hmdx Definition


Wind Chill Definition


Weather Definition


TIME
00:00 Legend Double Dagger 0.7 0.4 98 35 50 4.8 99.84     LegendNANA
01:00 Legend Double Dagger 0.6 0.5 99 35 52 4.0 99.80     LegendNANA
02:00 Legend Double Dagger 0.6 0.5 99 35 50 2.8 99.83     LegendNANA
03:00 Legend Double Dagger 0.6 0.3 98 35 52 2.0 99.84     LegendNANA
04:00 Legend Double Dagger 0.5 0.2 98 35 54 3.2 99.83     LegendNANA
05:00 Legend Double Dagger 0.4 0.1 98 35 59 4.0 99.84     LegendNANA
06:00 Legend Double Dagger 0.1 -0.2 98 35 59 2.4 99.88     LegendNANA
07:00 Legend Double Dagger -0.2 -0.8 96 34 63 2.0 99.92   -9 LegendNANA
08:00 Legend Double Dagger -0.4 -1.0 96 34 54 2.4 99.98   -9 LegendNANA
09:00 Legend Double Dagger -0.8 -1.2 97 34 65 1.0 99.99   -10 LegendNANA
10:00 Legend Double Dagger -1.0 -1.4 97 34 61 2.0 100.00   -10 LegendNANA
11:00 Legend Double Dagger -1.2 -1.5 98 34 61 0.8 100.03   -10 LegendNANA
12:00 Legend Double Dagger -1.3 -1.9 96 34 65 2.4 100.05   -11 LegendNANA
13:00 Legend Double Dagger -1.7 -2.4 95 34 71 0.8 100.09   -12 LegendNANA
14:00 Legend Double Dagger LegendMM LegendMM LegendMM LegendMM LegendMM LegendMM LegendMM     LegendNANA
15:00 Legend Double Dagger -0.8 -1.7 94 33 61 1.6 100.19   -10 LegendNANA
16:00 Legend Double Dagger -0.4 -2.3 87 33 74 8.1 100.22   -10 LegendNANA
17:00 Legend Double Dagger 0.2 -1.9 86 33 58 16.1 100.33     LegendNANA
18:00 Legend Double Dagger 0.3 -1.6 87 33 55 16.1 100.41     LegendNANA
19:00 Legend Double Dagger 0.1 -0.8 94 33 58 16.1 100.45     LegendNANA
20:00 Legend Double Dagger 0.3 -1.6 87 33 61 16.1 100.52     LegendNANA
21:00 Legend Double Dagger 0.0 -1.8 87 33 58 16.1 100.56   -9 LegendNANA
22:00 Legend Double Dagger -0.2 -1.8 89 32 52 16.1 100.61   -9 LegendNANA
23:00 Legend Double Dagger -0.3 -2.1 88 32 59 16.1 100.62   -9 LegendNANA

Notes on Data Quality.

Legend

  • E = Estimated
  • M = Missing
  • NA = Not Available
  • ‡ = Partner data that is not subject to review by the National Climate Archives
Date modified: